Year,Month,Day,Hour,Minute,Value (Times are PST for temperature in C)
2014,03,18,00,00,1.40
2014,03,18,00,01,1.40
2014,03,18,00,02,1.50
2014,03,18,00,03,1.50
2014,03,18,00,04,1.50
2014,03,18,00,05,1.50
2014,03,18,00,06,1.50
2014,03,18,00,07,1.50
2014,03,18,00,08,1.50
2014,03,18,00,09,1.50
2014,03,18,00,10,1.50
2014,03,18,00,11,1.50
2014,03,18,00,12,1.50
2014,03,18,00,13,1.50
2014,03,18,00,14,1.50
2014,03,18,00,15,1.50
2014,03,18,00,16,1.50
2014,03,18,00,17,1.50
2014,03,18,00,18,1.60
2014,03,18,00,19,1.60
2014,03,18,00,20,1.60
2014,03,18,00,21,1.60
2014,03,18,00,22,1.60
2014,03,18,00,23,1.60
2014,03,18,00,24,1.60
2014,03,18,00,25,1.60
2014,03,18,00,26,1.60
2014,03,18,00,27,1.60
2014,03,18,00,28,1.60
2014,03,18,00,29,1.70
2014,03,18,00,30,1.70
2014,03,18,00,31,1.70
2014,03,18,00,32,1.70
2014,03,18,00,33,1.70
2014,03,18,00,34,1.70
2014,03,18,00,35,1.70
2014,03,18,00,36,1.70
2014,03,18,00,37,1.70
2014,03,18,00,38,1.80
2014,03,18,00,39,1.80
2014,03,18,00,40,1.80
2014,03,18,00,41,1.80
2014,03,18,00,42,1.80
2014,03,18,00,43,1.80
2014,03,18,00,44,1.80
2014,03,18,00,45,1.80
2014,03,18,00,46,1.80
2014,03,18,00,47,1.80
2014,03,18,00,48,1.80
2014,03,18,00,49,1.80
2014,03,18,00,50,1.80
2014,03,18,00,51,1.80
2014,03,18,00,52,1.80
2014,03,18,00,53,1.80
2014,03,18,00,54,1.80
2014,03,18,00,55,1.80
2014,03,18,00,56,1.80
2014,03,18,00,57,1.80
2014,03,18,00,58,1.80
2014,03,18,00,59,1.80
2014,03,18,01,00,1.80
2014,03,18,01,01,1.90
2014,03,18,01,02,1.90
2014,03,18,01,03,1.90
2014,03,18,01,04,1.90
2014,03,18,01,05,1.90
2014,03,18,01,06,1.90
2014,03,18,01,07,1.90
2014,03,18,01,08,1.90
2014,03,18,01,09,1.90
2014,03,18,01,10,1.90
2014,03,18,01,11,1.90
2014,03,18,01,12,1.90
2014,03,18,01,13,1.90
2014,03,18,01,14,1.90
2014,03,18,01,15,1.90
2014,03,18,01,16,1.90
2014,03,18,01,17,1.90
2014,03,18,01,18,1.90
2014,03,18,01,19,1.90
2014,03,18,01,20,1.90
2014,03,18,01,21,1.90
2014,03,18,01,22,1.90
2014,03,18,01,23,1.90
2014,03,18,01,24,1.90
2014,03,18,01,25,1.90
2014,03,18,01,26,1.90
2014,03,18,01,27,1.90
2014,03,18,01,28,2.00
2014,03,18,01,29,2.00
2014,03,18,01,30,2.00
2014,03,18,01,31,2.00
2014,03,18,01,32,2.00
2014,03,18,01,33,2.00
2014,03,18,01,34,2.00
2014,03,18,01,35,2.00
2014,03,18,01,36,2.00
2014,03,18,01,37,2.00
2014,03,18,01,38,2.00
2014,03,18,01,39,2.10
2014,03,18,01,40,2.10
2014,03,18,01,41,2.10
2014,03,18,01,42,2.10
2014,03,18,01,43,2.10
2014,03,18,01,44,2.10
2014,03,18,01,45,2.10
2014,03,18,01,46,2.10
2014,03,18,01,47,2.10
2014,03,18,01,48,2.10
2014,03,18,01,49,2.10
2014,03,18,01,50,2.10
2014,03,18,01,51,2.20
2014,03,18,01,52,2.20
2014,03,18,01,53,2.20
2014,03,18,01,54,2.20
2014,03,18,01,55,2.20
2014,03,18,01,56,2.20
2014,03,18,01,57,2.20
2014,03,18,01,58,2.20
2014,03,18,01,59,2.20
2014,03,18,02,00,2.20
2014,03,18,02,01,2.20
2014,03,18,02,02,2.20
2014,03,18,02,03,2.20
2014,03,18,02,04,2.20
2014,03,18,02,05,2.20
2014,03,18,02,06,2.20
2014,03,18,02,07,2.20
2014,03,18,02,08,2.30
2014,03,18,02,09,2.30
2014,03,18,02,10,2.30
2014,03,18,02,11,2.30
2014,03,18,02,12,2.30
2014,03,18,02,13,2.30
2014,03,18,02,14,2.30
2014,03,18,02,15,2.30
2014,03,18,02,16,2.30
2014,03,18,02,17,2.30
2014,03,18,02,18,2.30
2014,03,18,02,19,2.30
2014,03,18,02,20,2.30
2014,03,18,02,21,2.40
2014,03,18,02,22,2.40
2014,03,18,02,23,2.40
2014,03,18,02,24,2.40
2014,03,18,02,25,2.40
2014,03,18,02,26,2.40
2014,03,18,02,27,2.40
2014,03,18,02,28,2.40
2014,03,18,02,29,2.40
2014,03,18,02,30,2.40
2014,03,18,02,31,2.40
2014,03,18,02,32,2.50
2014,03,18,02,33,2.50
2014,03,18,02,34,2.50
2014,03,18,02,35,2.50
2014,03,18,02,36,2.50
2014,03,18,02,37,2.50
2014,03,18,02,38,2.60
2014,03,18,02,39,2.60
2014,03,18,02,40,2.60
2014,03,18,02,41,2.60
2014,03,18,02,42,2.60
2014,03,18,02,43,2.60
2014,03,18,02,44,2.60
2014,03,18,02,45,2.60
2014,03,18,02,46,2.60
2014,03,18,02,47,2.70
2014,03,18,02,48,2.70
2014,03,18,02,49,2.70
2014,03,18,02,50,2.70
2014,03,18,02,51,2.70
2014,03,18,02,52,2.70
2014,03,18,02,53,2.70
2014,03,18,02,54,2.70
2014,03,18,02,55,2.70
2014,03,18,02,56,2.70
2014,03,18,02,57,2.70
2014,03,18,02,58,2.70
2014,03,18,02,59,2.70
2014,03,18,03,00,2.70
2014,03,18,03,01,2.70
2014,03,18,03,02,2.70
2014,03,18,03,03,2.70
2014,03,18,03,04,2.70
2014,03,18,03,05,2.70
2014,03,18,03,06,2.70
2014,03,18,03,07,2.70
2014,03,18,03,08,2.70
2014,03,18,03,09,2.80
2014,03,18,03,10,2.80
2014,03,18,03,11,2.80
2014,03,18,03,12,2.80
2014,03,18,03,13,2.80
2014,03,18,03,14,2.80
2014,03,18,03,15,2.80
2014,03,18,03,16,2.80
2014,03,18,03,17,2.80
2014,03,18,03,18,2.90
2014,03,18,03,19,2.90
2014,03,18,03,20,2.90
2014,03,18,03,21,2.90
2014,03,18,03,22,2.90
2014,03,18,03,23,3.00
2014,03,18,03,24,3.00
2014,03,18,03,25,3.00
2014,03,18,03,26,3.00
2014,03,18,03,27,3.00
2014,03,18,03,28,3.00
2014,03,18,03,29,3.00
2014,03,18,03,30,3.00
2014,03,18,03,31,3.10
2014,03,18,03,32,3.10
2014,03,18,03,33,3.10
2014,03,18,03,34,3.10
2014,03,18,03,35,3.10
2014,03,18,03,36,3.10
2014,03,18,03,37,3.00
2014,03,18,03,38,3.00
2014,03,18,03,39,3.00
2014,03,18,03,40,3.00
2014,03,18,03,41,3.00
2014,03,18,03,42,3.00
2014,03,18,03,43,3.00
2014,03,18,03,44,3.00
2014,03,18,03,45,3.00
2014,03,18,03,46,3.00
2014,03,18,03,47,3.00
2014,03,18,03,48,3.10
2014,03,18,03,49,3.00
2014,03,18,03,50,3.10
2014,03,18,03,51,3.10
2014,03,18,03,52,3.10
2014,03,18,03,53,3.10
2014,03,18,03,54,3.10
2014,03,18,03,55,3.10
2014,03,18,03,56,3.10
2014,03,18,03,57,3.10
2014,03,18,03,58,3.10
2014,03,18,03,59,3.10
2014,03,18,04,00,3.10
2014,03,18,04,01,3.10
2014,03,18,04,02,3.10
2014,03,18,04,03,3.10
2014,03,18,04,04,3.10
2014,03,18,04,05,3.10
2014,03,18,04,06,3.10
2014,03,18,04,07,3.10
2014,03,18,04,08,3.10
2014,03,18,04,09,3.10
2014,03,18,04,10,3.10
2014,03,18,04,11,3.10
2014,03,18,04,12,3.10
2014,03,18,04,13,3.10
2014,03,18,04,14,3.10
2014,03,18,04,15,3.10
2014,03,18,04,16,3.10
2014,03,18,04,17,3.10
2014,03,18,04,18,3.10
2014,03,18,04,19,3.10
2014,03,18,04,20,3.10
2014,03,18,04,21,3.10
2014,03,18,04,22,3.10
2014,03,18,04,23,3.10
2014,03,18,04,24,3.20
2014,03,18,04,25,3.20
2014,03,18,04,26,3.20
2014,03,18,04,27,3.20
2014,03,18,04,28,3.20
2014,03,18,04,29,3.20
2014,03,18,04,30,3.20
2014,03,18,04,31,3.20
2014,03,18,04,32,3.20
2014,03,18,04,33,3.20
2014,03,18,04,34,3.20
2014,03,18,04,35,3.20
2014,03,18,04,36,3.30
2014,03,18,04,37,3.30
2014,03,18,04,38,3.30
2014,03,18,04,39,3.30
2014,03,18,04,40,3.30
2014,03,18,04,41,3.30
2014,03,18,04,42,3.30
2014,03,18,04,43,3.30
2014,03,18,04,44,3.30
2014,03,18,04,45,3.30
2014,03,18,04,46,3.30
2014,03,18,04,47,3.30
2014,03,18,04,48,3.30
2014,03,18,04,49,3.30
2014,03,18,04,50,3.30
2014,03,18,04,51,3.30
2014,03,18,04,52,3.40
2014,03,18,04,53,3.40
2014,03,18,04,54,3.40
2014,03,18,04,55,3.40
2014,03,18,04,56,3.40
2014,03,18,04,57,3.40
2014,03,18,04,58,3.40
2014,03,18,04,59,3.40
2014,03,18,05,00,3.40
2014,03,18,05,01,3.40
2014,03,18,05,02,3.40
2014,03,18,05,03,3.40
2014,03,18,05,04,3.40
2014,03,18,05,05,3.40
2014,03,18,05,06,3.40
2014,03,18,05,07,3.50
2014,03,18,05,08,3.50
2014,03,18,05,09,3.50
2014,03,18,05,10,3.50
2014,03,18,05,11,3.50
2014,03,18,05,12,3.50
2014,03,18,05,13,3.50
2014,03,18,05,14,3.50
2014,03,18,05,15,3.50
2014,03,18,05,16,3.50
2014,03,18,05,17,3.50
2014,03,18,05,18,3.60
2014,03,18,05,19,3.60
2014,03,18,05,20,3.60
2014,03,18,05,21,3.60
2014,03,18,05,22,3.60
2014,03,18,05,23,3.60
2014,03,18,05,24,3.60
2014,03,18,05,25,3.60
2014,03,18,05,26,3.60
2014,03,18,05,27,3.60
2014,03,18,05,28,3.60
2014,03,18,05,29,3.60
2014,03,18,05,30,3.60
2014,03,18,05,31,3.60
2014,03,18,05,32,3.60
2014,03,18,05,33,3.60
2014,03,18,05,34,3.60
2014,03,18,05,35,3.60
2014,03,18,05,36,3.70
2014,03,18,05,37,3.70
2014,03,18,05,38,3.70
2014,03,18,05,39,3.70
2014,03,18,05,40,3.70
2014,03,18,05,41,3.70
2014,03,18,05,42,3.70
2014,03,18,05,43,3.70
2014,03,18,05,44,3.70
2014,03,18,05,45,3.70
2014,03,18,05,46,3.70
2014,03,18,05,47,3.70
2014,03,18,05,48,3.70
2014,03,18,05,49,3.70
2014,03,18,05,50,3.70
2014,03,18,05,51,3.70
2014,03,18,05,52,3.70
2014,03,18,05,53,3.70
2014,03,18,05,54,3.70
2014,03,18,05,55,3.80
2014,03,18,05,56,3.80
2014,03,18,05,57,3.80
2014,03,18,05,58,3.80
2014,03,18,05,59,3.80
2014,03,18,06,00,3.80
2014,03,18,06,01,3.80
2014,03,18,06,02,3.80
2014,03,18,06,03,3.80
2014,03,18,06,04,3.80
2014,03,18,06,05,3.80
2014,03,18,06,06,3.80
2014,03,18,06,07,3.80
2014,03,18,06,08,3.80
2014,03,18,06,09,3.80
2014,03,18,06,10,3.80
2014,03,18,06,11,3.80
2014,03,18,06,12,3.80
2014,03,18,06,13,3.80
2014,03,18,06,14,3.80
2014,03,18,06,15,3.80
2014,03,18,06,16,3.80
2014,03,18,06,17,3.80
2014,03,18,06,18,3.80
2014,03,18,06,19,3.80
2014,03,18,06,20,3.80
2014,03,18,06,21,3.80
2014,03,18,06,22,3.80
2014,03,18,06,23,3.80
2014,03,18,06,24,3.80
2014,03,18,06,25,3.80
2014,03,18,06,26,3.80
2014,03,18,06,27,3.80
2014,03,18,06,28,3.80
2014,03,18,06,29,3.80
2014,03,18,06,30,3.80
2014,03,18,06,31,3.80
2014,03,18,06,32,3.80
2014,03,18,06,33,3.80
2014,03,18,06,34,3.80
2014,03,18,06,35,3.80
2014,03,18,06,36,3.80
2014,03,18,06,37,3.80
2014,03,18,06,38,3.80
2014,03,18,06,39,3.80
2014,03,18,06,40,3.80
2014,03,18,06,41,3.80
2014,03,18,06,42,3.80
2014,03,18,06,43,3.80
2014,03,18,06,44,3.80
2014,03,18,06,45,3.80
2014,03,18,06,46,3.80
2014,03,18,06,47,3.80
2014,03,18,06,48,3.80
2014,03,18,06,49,3.80
2014,03,18,06,50,3.80
2014,03,18,06,51,3.80
2014,03,18,06,52,3.80
2014,03,18,06,53,3.80
2014,03,18,06,54,3.80
2014,03,18,06,55,3.80
2014,03,18,06,56,3.90
2014,03,18,06,57,3.90
2014,03,18,06,58,3.90
2014,03,18,06,59,3.90
2014,03,18,07,00,3.90
2014,03,18,07,01,3.90
2014,03,18,07,02,3.90
2014,03,18,07,03,3.90
2014,03,18,07,04,3.90
2014,03,18,07,05,3.90
2014,03,18,07,06,3.90
2014,03,18,07,07,3.90
2014,03,18,07,08,3.90
2014,03,18,07,09,3.90
2014,03,18,07,10,3.90
2014,03,18,07,11,3.90
2014,03,18,07,12,3.90
2014,03,18,07,13,3.90
2014,03,18,07,14,3.90
2014,03,18,07,15,3.90
2014,03,18,07,16,3.90
2014,03,18,07,17,3.90
2014,03,18,07,18,3.90
2014,03,18,07,19,4.00
2014,03,18,07,20,4.00
2014,03,18,07,21,4.00
2014,03,18,07,22,4.00
2014,03,18,07,23,4.00
2014,03,18,07,24,4.00
2014,03,18,07,25,4.00
2014,03,18,07,26,4.00
2014,03,18,07,27,4.00
2014,03,18,07,28,4.00
2014,03,18,07,29,4.00
2014,03,18,07,30,4.00
2014,03,18,07,31,4.10
2014,03,18,07,32,4.10
2014,03,18,07,33,4.10
2014,03,18,07,34,4.10
2014,03,18,07,35,4.10
2014,03,18,07,36,4.10
2014,03,18,07,37,4.10
2014,03,18,07,38,4.10
2014,03,18,07,39,4.10
2014,03,18,07,40,4.10
2014,03,18,07,41,4.10
2014,03,18,07,42,4.10
2014,03,18,07,43,4.10
2014,03,18,07,44,4.10
2014,03,18,07,45,4.10
2014,03,18,07,46,4.10
2014,03,18,07,47,4.10
2014,03,18,07,48,4.10
2014,03,18,07,49,4.10
2014,03,18,07,50,4.10
2014,03,18,07,51,4.10
2014,03,18,07,52,4.10
2014,03,18,07,53,4.20
2014,03,18,07,54,4.20
2014,03,18,07,55,4.20
2014,03,18,07,56,4.20
2014,03,18,07,57,4.20
2014,03,18,07,58,4.20
2014,03,18,07,59,4.20
2014,03,18,08,00,4.20
2014,03,18,08,01,4.20
2014,03,18,08,02,4.20
2014,03,18,08,03,4.30
2014,03,18,08,04,4.30
2014,03,18,08,05,4.30
2014,03,18,08,06,4.30
2014,03,18,08,07,4.30
2014,03,18,08,08,4.40
2014,03,18,08,09,4.40
2014,03,18,08,10,4.40
2014,03,18,08,11,4.40
2014,03,18,08,12,4.40
2014,03,18,08,13,4.40
2014,03,18,08,14,4.50
2014,03,18,08,15,4.50
2014,03,18,08,16,4.50
2014,03,18,08,17,4.50
2014,03,18,08,18,4.50
2014,03,18,08,19,4.60
2014,03,18,08,20,4.60
2014,03,18,08,21,4.60
2014,03,18,08,22,4.60
2014,03,18,08,23,4.60
2014,03,18,08,24,4.60
2014,03,18,08,25,4.60
2014,03,18,08,26,4.60
2014,03,18,08,27,4.60
2014,03,18,08,28,4.70
2014,03,18,08,29,4.70
2014,03,18,08,30,4.70
2014,03,18,08,31,4.70
2014,03,18,08,32,4.70
2014,03,18,08,33,4.70
2014,03,18,08,34,4.70
2014,03,18,08,35,4.70
2014,03,18,08,36,4.70
2014,03,18,08,37,4.70
2014,03,18,08,38,4.70
2014,03,18,08,39,4.70
2014,03,18,08,40,4.70
2014,03,18,08,41,4.70
2014,03,18,08,42,4.70
2014,03,18,08,43,4.80
2014,03,18,08,44,4.80
2014,03,18,08,45,4.80
2014,03,18,08,46,4.80
2014,03,18,08,47,4.80
2014,03,18,08,48,4.80
2014,03,18,08,49,4.80
2014,03,18,08,50,4.80
2014,03,18,08,51,4.90
2014,03,18,08,52,4.90
2014,03,18,08,53,4.90
2014,03,18,08,54,4.90
2014,03,18,08,55,4.90
2014,03,18,08,56,4.90
2014,03,18,08,57,4.90
2014,03,18,08,58,4.90
2014,03,18,08,59,4.90
2014,03,18,09,00,5.00
2014,03,18,09,01,5.00
2014,03,18,09,02,5.00
2014,03,18,09,03,5.00
2014,03,18,09,04,5.00
2014,03,18,09,05,5.00
2014,03,18,09,06,5.00
2014,03,18,09,07,5.10
2014,03,18,09,08,5.10
2014,03,18,09,09,5.10
2014,03,18,09,10,5.10
2014,03,18,09,11,5.10
2014,03,18,09,12,5.10
2014,03,18,09,13,5.10
2014,03,18,09,14,5.20
2014,03,18,09,15,5.20
2014,03,18,09,16,5.20
2014,03,18,09,17,5.20
2014,03,18,09,18,5.20
2014,03,18,09,19,5.20
2014,03,18,09,20,5.20
2014,03,18,09,21,5.20
2014,03,18,09,22,5.20
2014,03,18,09,23,5.20
2014,03,18,09,24,5.30
2014,03,18,09,25,5.30
2014,03,18,09,26,5.30
2014,03,18,09,27,5.30
2014,03,18,09,28,5.30
2014,03,18,09,29,5.30
2014,03,18,09,30,5.30
2014,03,18,09,31,5.30
2014,03,18,09,32,5.30
2014,03,18,09,33,5.30
2014,03,18,09,34,5.30
2014,03,18,09,35,5.30
2014,03,18,09,36,5.30
2014,03,18,09,37,5.30
2014,03,18,09,38,5.30
2014,03,18,09,39,5.30
2014,03,18,09,40,5.30
2014,03,18,09,41,5.30
2014,03,18,09,42,5.30
2014,03,18,09,43,5.30
2014,03,18,09,44,5.30
2014,03,18,09,45,5.30
2014,03,18,09,46,5.30
2014,03,18,09,47,5.30
2014,03,18,09,48,5.40
2014,03,18,09,49,5.40
2014,03,18,09,50,5.40
2014,03,18,09,51,5.40
2014,03,18,09,52,5.40
2014,03,18,09,53,5.40
2014,03,18,09,54,5.40
2014,03,18,09,55,5.40
2014,03,18,09,56,5.50
2014,03,18,09,57,5.50
2014,03,18,09,58,5.50
2014,03,18,09,59,5.50
2014,03,18,10,00,5.50
2014,03,18,10,01,5.50
2014,03,18,10,02,5.50
2014,03,18,10,03,5.60
2014,03,18,10,04,5.60
2014,03,18,10,05,5.60
2014,03,18,10,06,5.60
2014,03,18,10,07,5.60
2014,03,18,10,08,5.60
2014,03,18,10,09,5.60
2014,03,18,10,10,5.60
2014,03,18,10,11,5.60
2014,03,18,10,12,5.70
2014,03,18,10,13,5.70
2014,03,18,10,14,5.70
2014,03,18,10,15,5.70
2014,03,18,10,16,5.70
2014,03,18,10,17,5.70
2014,03,18,10,18,5.70
2014,03,18,10,19,5.70
2014,03,18,10,20,5.70
2014,03,18,10,21,5.70
2014,03,18,10,22,5.70
2014,03,18,10,23,5.80
2014,03,18,10,24,5.80
2014,03,18,10,25,5.80
2014,03,18,10,26,5.80
2014,03,18,10,27,5.80
2014,03,18,10,28,5.80
2014,03,18,10,29,5.80
2014,03,18,10,30,5.80
2014,03,18,10,31,5.80
2014,03,18,10,32,5.90
2014,03,18,10,33,5.90
2014,03,18,10,34,5.90
2014,03,18,10,35,5.90
2014,03,18,10,36,5.90
2014,03,18,10,37,6.00
2014,03,18,10,38,6.00
2014,03,18,10,39,6.00
2014,03,18,10,40,6.10
2014,03,18,10,41,6.10
2014,03,18,10,42,6.10
2014,03,18,10,43,6.10
2014,03,18,10,44,6.10
2014,03,18,10,45,6.10
2014,03,18,10,46,6.10
2014,03,18,10,47,6.10
2014,03,18,10,48,6.10
2014,03,18,10,49,6.00
2014,03,18,10,50,6.00
2014,03,18,10,51,6.00
2014,03,18,10,52,6.00
2014,03,18,10,53,6.00
2014,03,18,10,54,6.10
2014,03,18,10,55,6.10
2014,03,18,10,56,6.10
2014,03,18,10,57,6.10
2014,03,18,10,58,6.10
2014,03,18,10,59,6.10
2014,03,18,11,00,6.20
2014,03,18,11,01,6.20
2014,03,18,11,02,6.20
2014,03,18,11,03,6.20
2014,03,18,11,04,6.20
2014,03,18,11,05,6.20
2014,03,18,11,06,6.20
2014,03,18,11,07,6.30
2014,03,18,11,08,6.30
2014,03,18,11,09,6.30
2014,03,18,11,10,6.30
2014,03,18,11,11,6.30
2014,03,18,11,12,6.40
2014,03,18,11,13,6.40
2014,03,18,11,14,6.40
2014,03,18,11,15,6.40
2014,03,18,11,16,6.40
2014,03,18,11,17,6.40
2014,03,18,11,18,6.40
2014,03,18,11,19,6.40
2014,03,18,11,20,6.40
2014,03,18,11,21,6.40
2014,03,18,11,22,6.30
2014,03,18,11,23,6.30
2014,03,18,11,24,6.30
2014,03,18,11,25,6.30
2014,03,18,11,26,6.30
2014,03,18,11,27,6.30
2014,03,18,11,28,6.30
2014,03,18,11,29,6.40
2014,03,18,11,30,6.40
2014,03,18,11,31,6.40
2014,03,18,11,32,6.40
2014,03,18,11,33,6.40
2014,03,18,11,34,6.40
2014,03,18,11,35,6.40
2014,03,18,11,36,6.50
2014,03,18,11,37,6.50
2014,03,18,11,38,6.40
2014,03,18,11,39,6.50
2014,03,18,11,40,6.50
2014,03,18,11,41,6.50
2014,03,18,11,42,6.50
2014,03,18,11,43,6.60
2014,03,18,11,44,6.60
2014,03,18,11,45,6.60
2014,03,18,11,46,6.60
2014,03,18,11,47,6.60
2014,03,18,11,48,6.60
2014,03,18,11,49,6.50
2014,03,18,11,50,6.50
2014,03,18,11,51,6.50
2014,03,18,11,52,6.50
2014,03,18,11,53,6.50
2014,03,18,11,54,6.50
2014,03,18,11,55,6.40
2014,03,18,11,56,6.40
2014,03,18,11,57,6.40
2014,03,18,11,58,6.40
2014,03,18,11,59,6.40
2014,03,18,12,00,6.40
2014,03,18,12,01,6.30
2014,03,18,12,02,6.30
2014,03,18,12,03,6.30
2014,03,18,12,04,6.30
2014,03,18,12,05,6.20
2014,03,18,12,06,6.20
2014,03,18,12,07,6.20
2014,03,18,12,08,6.20
2014,03,18,12,09,6.20
2014,03,18,12,10,6.20
2014,03,18,12,11,6.20
2014,03,18,12,12,6.20
2014,03,18,12,13,6.20
2014,03,18,12,14,6.20
2014,03,18,12,15,6.20
2014,03,18,12,16,6.20
2014,03,18,12,17,6.20
2014,03,18,12,18,6.20
2014,03,18,12,19,6.20
2014,03,18,12,20,6.20
2014,03,18,12,21,6.20
2014,03,18,12,22,6.20
2014,03,18,12,23,6.20
2014,03,18,12,24,6.20
2014,03,18,12,25,6.20
2014,03,18,12,26,6.20
2014,03,18,12,27,6.20
2014,03,18,12,28,6.20
2014,03,18,12,29,6.20
2014,03,18,12,30,6.20
2014,03,18,12,31,6.20
2014,03,18,12,32,6.30
2014,03,18,12,33,6.30
2014,03,18,12,34,6.30
2014,03,18,12,35,6.30
2014,03,18,12,36,6.30
2014,03,18,12,37,6.20
2014,03,18,12,38,6.20
2014,03,18,12,39,6.20
2014,03,18,12,40,6.20
2014,03,18,12,41,6.20
2014,03,18,12,42,6.20
2014,03,18,12,43,6.20
2014,03,18,12,44,6.20
2014,03,18,12,45,6.20
2014,03,18,12,46,6.20
2014,03,18,12,47,6.20
2014,03,18,12,48,6.20
2014,03,18,12,49,6.20
2014,03,18,12,50,6.20
2014,03,18,12,51,6.20
2014,03,18,12,52,6.20
2014,03,18,12,53,6.20
2014,03,18,12,54,6.20
2014,03,18,12,55,6.30
2014,03,18,12,56,6.30
2014,03,18,12,57,6.30
2014,03,18,12,58,6.30
2014,03,18,12,59,6.30
2014,03,18,13,00,6.30
2014,03,18,13,01,6.40
2014,03,18,13,02,6.40
2014,03,18,13,03,6.40
2014,03,18,13,04,6.40
2014,03,18,13,05,6.40
2014,03,18,13,06,6.40
2014,03,18,13,07,6.40
2014,03,18,13,08,6.40
2014,03,18,13,09,6.40
2014,03,18,13,10,6.40
2014,03,18,13,11,6.40
2014,03,18,13,12,6.50
2014,03,18,13,13,6.50
2014,03,18,13,14,6.50
2014,03,18,13,15,6.50
2014,03,18,13,16,6.50
2014,03,18,13,17,6.60
2014,03,18,13,18,6.60
2014,03,18,13,19,6.60
2014,03,18,13,20,6.60
2014,03,18,13,21,6.60
2014,03,18,13,22,6.60
2014,03,18,13,23,6.60
2014,03,18,13,24,6.60
2014,03,18,13,25,6.60
2014,03,18,13,26,6.70
2014,03,18,13,27,6.70
2014,03,18,13,28,6.70
2014,03,18,13,29,6.70
2014,03,18,13,30,6.70
2014,03,18,13,31,6.80
2014,03,18,13,32,6.80
2014,03,18,13,33,6.70
2014,03,18,13,34,6.70
2014,03,18,13,35,6.70
2014,03,18,13,36,6.70
2014,03,18,13,37,6.70
2014,03,18,13,38,6.70
2014,03,18,13,39,6.70
2014,03,18,13,40,6.70
2014,03,18,13,41,6.70
2014,03,18,13,42,6.70
2014,03,18,13,43,6.70
2014,03,18,13,44,6.70
2014,03,18,13,45,6.70
2014,03,18,13,46,6.70
2014,03,18,13,47,6.70
2014,03,18,13,48,6.70
2014,03,18,13,49,6.70
2014,03,18,13,50,6.70
2014,03,18,13,51,6.70
2014,03,18,13,52,6.70
2014,03,18,13,53,6.70
2014,03,18,13,54,6.70
2014,03,18,13,55,6.70
2014,03,18,13,56,6.70
2014,03,18,13,57,6.70
2014,03,18,13,58,6.70
2014,03,18,13,59,6.70
2014,03,18,14,00,6.70
2014,03,18,14,01,6.70
2014,03,18,14,02,6.70
2014,03,18,14,03,6.60
2014,03,18,14,04,6.60
2014,03,18,14,05,6.60
2014,03,18,14,06,6.60
2014,03,18,14,07,6.60
2014,03,18,14,08,6.60
2014,03,18,14,09,6.60
2014,03,18,14,10,6.60
2014,03,18,14,11,6.60
2014,03,18,14,12,6.60
2014,03,18,14,13,6.60
2014,03,18,14,14,6.60
2014,03,18,14,15,6.60
2014,03,18,14,16,6.70
2014,03,18,14,17,6.70
2014,03,18,14,18,6.70
2014,03,18,14,19,6.70
2014,03,18,14,20,6.70
2014,03,18,14,21,6.70
2014,03,18,14,22,6.70
2014,03,18,14,23,6.70
2014,03,18,14,24,6.70
2014,03,18,14,25,6.80
2014,03,18,14,26,6.80
2014,03,18,14,27,6.80
2014,03,18,14,28,6.80
2014,03,18,14,29,6.80
2014,03,18,14,30,6.80
2014,03,18,14,31,6.80
2014,03,18,14,32,6.80
2014,03,18,14,33,6.90
2014,03,18,14,34,6.90
2014,03,18,14,35,6.90
2014,03,18,14,36,6.90
2014,03,18,14,37,6.90
2014,03,18,14,38,6.90
2014,03,18,14,39,6.90
2014,03,18,14,40,6.90
2014,03,18,14,41,6.90
2014,03,18,14,42,6.80
2014,03,18,14,43,6.90
2014,03,18,14,44,6.90
2014,03,18,14,45,6.90
2014,03,18,14,46,6.90
2014,03,18,14,47,6.90
2014,03,18,14,48,6.90
2014,03,18,14,49,6.90
2014,03,18,14,50,6.90
2014,03,18,14,51,6.90
2014,03,18,14,52,6.90
2014,03,18,14,53,6.90
2014,03,18,14,54,6.90
2014,03,18,14,55,6.90
2014,03,18,14,56,7.00
2014,03,18,14,57,7.00
2014,03,18,14,58,7.00
2014,03,18,14,59,7.00
2014,03,18,15,00,7.10
2014,03,18,15,01,7.10
2014,03,18,15,02,7.10
2014,03,18,15,03,7.10
2014,03,18,15,04,7.10
2014,03,18,15,05,7.10
2014,03,18,15,06,7.10
2014,03,18,15,07,7.10
2014,03,18,15,08,7.10
2014,03,18,15,09,7.10
2014,03,18,15,10,7.10
2014,03,18,15,11,7.10
2014,03,18,15,12,7.10
2014,03,18,15,13,7.10
2014,03,18,15,14,7.10
2014,03,18,15,15,7.10
2014,03,18,15,16,7.10
2014,03,18,15,17,7.10
2014,03,18,15,18,7.10
2014,03,18,15,19,7.10
2014,03,18,15,20,7.10
2014,03,18,15,21,7.10
2014,03,18,15,22,7.10
2014,03,18,15,23,7.10
2014,03,18,15,24,7.10
2014,03,18,15,25,7.10
2014,03,18,15,26,7.10
2014,03,18,15,27,7.10
2014,03,18,15,28,7.10
2014,03,18,15,29,7.20
2014,03,18,15,30,7.20
2014,03,18,15,31,7.20
2014,03,18,15,32,7.20
2014,03,18,15,33,7.20
2014,03,18,15,34,7.20
2014,03,18,15,35,7.20
2014,03,18,15,36,7.20
2014,03,18,15,37,7.20
2014,03,18,15,38,7.20
2014,03,18,15,39,7.20
2014,03,18,15,40,7.20
2014,03,18,15,41,7.20
2014,03,18,15,42,7.30
2014,03,18,15,43,7.30
2014,03,18,15,44,7.30
2014,03,18,15,45,7.30
2014,03,18,15,46,7.30
2014,03,18,15,47,7.30
2014,03,18,15,48,7.30
2014,03,18,15,49,7.30
2014,03,18,15,50,7.30
2014,03,18,15,51,7.30
2014,03,18,15,52,7.30
2014,03,18,15,53,7.30
2014,03,18,15,54,7.30
2014,03,18,15,55,7.30
2014,03,18,15,56,7.30
2014,03,18,15,57,7.40
2014,03,18,15,58,7.40
2014,03,18,15,59,7.40
2014,03,18,16,00,7.40
2014,03,18,16,01,7.40
2014,03,18,16,02,7.40
2014,03,18,16,03,7.40
2014,03,18,16,04,7.40
2014,03,18,16,05,7.40
2014,03,18,16,06,7.40
2014,03,18,16,07,7.40
2014,03,18,16,08,7.40
2014,03,18,16,09,7.40
2014,03,18,16,10,7.40
2014,03,18,16,11,7.40
2014,03,18,16,12,7.40
2014,03,18,16,13,7.40
2014,03,18,16,14,7.40
2014,03,18,16,15,7.40
2014,03,18,16,16,7.40
2014,03,18,16,17,7.50
2014,03,18,16,18,7.50
2014,03,18,16,19,7.50
2014,03,18,16,20,7.50
2014,03,18,16,21,7.50
2014,03,18,16,22,7.50
2014,03,18,16,23,7.50
2014,03,18,16,24,7.60
2014,03,18,16,25,7.60
2014,03,18,16,26,7.60
2014,03,18,16,27,7.60
2014,03,18,16,28,7.60
2014,03,18,16,29,7.60
2014,03,18,16,30,7.70
2014,03,18,16,31,7.70
2014,03,18,16,32,7.70
2014,03,18,16,33,7.70
2014,03,18,16,34,7.70
2014,03,18,16,35,7.70
2014,03,18,16,36,7.70
2014,03,18,16,37,7.70
2014,03,18,16,38,7.70
2014,03,18,16,39,7.80
2014,03,18,16,40,7.80
2014,03,18,16,41,7.80
2014,03,18,16,42,7.80
2014,03,18,16,43,7.80
2014,03,18,16,44,7.80
2014,03,18,16,45,7.80
2014,03,18,16,46,7.90
2014,03,18,16,47,7.90
2014,03,18,16,48,7.90
2014,03,18,16,49,7.90
2014,03,18,16,50,7.90
2014,03,18,16,51,7.90
2014,03,18,16,52,7.90
2014,03,18,16,53,7.90
2014,03,18,16,54,7.90
2014,03,18,16,55,7.90
2014,03,18,16,56,7.90
2014,03,18,16,57,7.90
2014,03,18,16,58,7.90
2014,03,18,16,59,7.90
2014,03,18,17,00,7.80
2014,03,18,17,01,7.80
2014,03,18,17,02,7.80
2014,03,18,17,03,7.80
2014,03,18,17,04,7.80
2014,03,18,17,05,7.90
2014,03,18,17,06,7.90
2014,03,18,17,07,7.90
2014,03,18,17,08,7.80
2014,03,18,17,09,7.80
2014,03,18,17,10,7.90
2014,03,18,17,11,7.90
2014,03,18,17,12,7.90
2014,03,18,17,13,7.90
2014,03,18,17,14,7.90
2014,03,18,17,15,7.90
2014,03,18,17,16,7.90
2014,03,18,17,17,7.90
2014,03,18,17,18,7.90
2014,03,18,17,19,7.90
2014,03,18,17,20,7.90
2014,03,18,17,21,7.90
2014,03,18,17,22,7.90
2014,03,18,17,23,7.90
2014,03,18,17,24,7.90
2014,03,18,17,25,7.90
2014,03,18,17,26,7.90
2014,03,18,17,27,7.90
2014,03,18,17,28,7.90
2014,03,18,17,29,7.90
2014,03,18,17,30,7.90
2014,03,18,17,31,7.90
2014,03,18,17,32,7.90
2014,03,18,17,33,8.00
2014,03,18,17,34,7.90
2014,03,18,17,35,7.90
2014,03,18,17,36,7.90
2014,03,18,17,37,7.90
2014,03,18,17,38,7.90
2014,03,18,17,39,7.90
2014,03,18,17,40,7.90
2014,03,18,17,41,7.90
2014,03,18,17,42,7.90
2014,03,18,17,43,7.90
2014,03,18,17,44,7.90
2014,03,18,17,45,7.90
2014,03,18,17,46,7.90
2014,03,18,17,47,7.90
2014,03,18,17,48,7.90
2014,03,18,17,49,7.90
2014,03,18,17,50,7.90
2014,03,18,17,51,7.90
2014,03,18,17,52,7.90
2014,03,18,17,53,7.90
2014,03,18,17,54,7.90
2014,03,18,17,55,7.90
2014,03,18,17,56,7.90
2014,03,18,17,57,7.90
2014,03,18,17,58,7.90
2014,03,18,17,59,7.90
2014,03,18,18,00,7.90
2014,03,18,18,01,7.90
2014,03,18,18,02,7.90
2014,03,18,18,03,7.90
2014,03,18,18,04,7.90
2014,03,18,18,05,7.90
2014,03,18,18,06,7.90